OPS 4682 DEB, 38392

Orbit data source: Space-Track

OPS 4682 DEB, 38392 is space debris in LEO originally from a launch on Sat, 03 Apr 1965 UTC launched from the Air Force Western Test Range (AFWTR). Debris objects in space refer to the collection of defunct objects orbiting the Earth. Examples of debris include non-operational satellites, rocket bodies, and fragments generated from explosions, collisions, or faulty payload assembly.

Loading next visibility...
Identifier
38392, 1965-027CV
Orbit
LEO
Country
Flag of USUS
Related business
Manufacturer
Unknown
Mission
Spacecraft
Bus & Motor
Unknown
Mass
Unknown
Launch date (UTC)
1965-04-03 (61 years ago)
Launch vehicle
Unknown
Launch site
Air Force Western Test Range (AFWTR)
Object type
Payload
Rocket body
Debris
Shape & HBR
Unknown shape, 0.1 m
Radar Cross Section
Small (<0.1 m²)

Expand to show TLE details & history
Last TLE update: 2 days ago

TLE from 2 days ago
0 OPS 4682 DEB
1 38392U 65027CV  26102.02816482  .00000279  00000-0  96228-3 0  9995
2 38392  90.2541  11.8905 0031404 347.5156  12.5182 12.95297068602573
Epoch: 2026-04-12T00:40Z
TLE epoch observation values (Epoch: 2026-04-12T00:40:33.440Z)
Latitude
-0.00003°
Longitude
161.51216°
Altitude
1,259.965 km
Speed
7.236 km/s
True Right ascension
00h 47m 33s
True Declination
0° 00' 00"
Sunlit
Object was in daylight at epoch
Visualization orbit readout
Latitude
Unknown
Longitude
Unknown
Altitude
Unknown
Speed
Unknown
Apparent Right ascension
Unknown
Apparent Declination
Unknown
Sunlit
N/A
Visualization observer readout
Local Sidereal Time
15:42:25
Azimuth
Unknown
Elevation
Unknown
Doppler factor
Unknown
Orbital elements
Apogee altitude
1,301.745 km
Perigee altitude
1,253.66 km
Semi-major axis
7,655.84 km
Eccentricity
0.00314
Inclination
90.2541°
RAAN
11.8905°
Arg. of periapsis
347.5156°
True anomaly
12.5965°
Mean anomaly
12.5182°
Eccentric anomaly
12.55732°
Mean motion
3.24007 °/min
Orbital period
111.11 mins
BSTAR
0.00096228
Loading maneuver chart data...
Computing Atmospheric mass density...
Loading historical data...
Loading historical data...
Loading historical data...
Loading historical data...
Loading historical data...
Loading historical data...
Loading historical data...

Documentation

Showing up to 5 results
|